Aérodrome :
LOGIN :

S'inscrire | Disclaimer

   EN    FR    IT 

 










Légende :    VFR   VFR Marginal   IFR   IFR Intensif   IFR Très Intensif
Visi : 
Plafond : 
>= 8 km
>= 3000ft
5 à 8 km
1000 à 3000 ft
1500m à 5 km
500 à 1000 ft
800 à 1500m
200 à 500 ft
< 800m
< 200 ft
Symboles :   Orages  Brouillard  Fortes neiges  Fortes précipitations  Vent > 20 kt
SIGMETs :   Divers  Orages  Givrage  Turbulence  Onde Orograph.  Cendres Volcan.







- Altitude de l'aérodrome : 313 ft
- Code IATA : LEH
- Voir les cartes d'approche


LFOH - Le Havre Octeville

DERNIER METAR :
  • 251730Z AUTO 03013KT CAVOK 23/13 Q1024 NOSIG

METARs EXPIRÉS :
  • 251700Z AUTO 02013KT CAVOK 23/13 Q1025 NOSIG
  • 251630Z AUTO 03012KT CAVOK 23/14 Q1025 NOSIG
  • 251600Z AUTO 02012KT CAVOK 23/14 Q1025 NOSIG
  • 251530Z AUTO 02013KT 350V050 CAVOK 24/13 Q1025 NOSIG
  • 251500Z AUTO 02013KT CAVOK 24/13 Q1025 NOSIG

TAF TAF LFOH
Valide du 25 à 12h jusqu'au 26 à 12h UTC


251100Z 2512/2612 03010KT CAVOK
ATIS : +33 2 35 54 64 93
Pas de NOTAMs connus pour ce terrain.



MET'MAP, la Météo Aéronautique d'un coup d'oeil ! - Copyright ORBIFLY Décembre 2007 - Disclaimer

ORBIFLY MET'MAP TEAM :

Programmation & Développement : Alexandra Zaïnal
Conception & Développement : Baudouin d'Aumeries
Co-Programmation & Développement : Marc-Olivier Méhu
Soutien technique & logistique : Manuel Goepfert

Contact : metmap@orbifly.com




SOURCES & CREDITS :

   NOAA